Weather History for Joplin, MO

Change the Weather History Date:

Wednesday, February 6, 2013

  Actual Average Record
Temperature  
Mean Temperature 52 °F 37 °F  
Max Temperature 67 °F 48 °F 69 °F (2009)
Min Temperature 37 °F 27 °F -3 °F (1985)
Degree Days  
Heating Degree Days 13 28  
Month to date heating degree days 146 169  
Since 1 July heating degree days 2499 2718  
Cooling Degree Days 0 0  
Month to date cooling degree days 0 0  
Year to date cooling degree days 1 0  
Growing Degree Days 2 (Base 50)    
Moisture  
Dew Point 34 °F    
Average Humidity 55    
Maximum Humidity 76    
Minimum Humidity 34    
Precipitation  
Precipitation 0.00 in 0.07 in 1.06 in (1951)
Month to date precipitation T 0.40  
Year to date precipitation 2.45 2.43  
Snow  
Snow 0.00 in - - ()
Month to date snowfall 0.0  
Snow Depth 0.00 in    
Sea Level Pressure  
Sea Level Pressure 30.02 in    
Wind  
Wind Speed 10 mph (SE)    
Max Wind Speed 18 mph    
Max Gust Speed 25 mph    
Visibility 10 miles    
Events      
T = Trace of Precipitation, MM = Missing Value Source: NWS Daily Summary

Daily Weather History Graph

Daily Weather History Graph

Search for Another Location

Airport:

Trip Planner

Search our weather history database for the weather conditions in past years. The results will help you decide how hot, cold, wet, or windy it might be!

Date:

Astronomy

Feb. 06, 2013 Rise Set
Actual Time 7:16 AM CST 5:48 PM CST
Civil Twilight 6:48 AM CST 6:15 PM CST
Nautical Twilight 6:18 AM CST 6:46 PM CST
Astronomical Twilight 5:47 AM CST 7:17 PM CST
Moon 3:57 AM CST (2/6) 2:10 PM CST (2/6)
Length of Visible Light 11h 26m
Length of Day
10h 32m
Waning Crescent, 17% of the Moon is Illuminated
Feb 6
Waning Crescent
Feb 10
New
Feb 17
First Quarter
Feb 25
Full
Mar 4
Last Quarter

Hourly Weather History & Observations

Time (CST) Temp. Windchill Dew Point Humidity Pressure Visibility Wind Dir Wind Speed Gust Speed Precip Events Conditions
12:53 AM 41.0 °F 36.4 °F 30.0 °F 65% 30.08 in 10.0 mi East 6.9 mph - N/A   Clear
1:53 AM 41.0 °F 37.1 °F 30.0 °F 65% 30.09 in 10.0 mi SE 5.8 mph - N/A   Clear
2:53 AM 39.0 °F 34.0 °F 30.0 °F 70% 30.09 in 10.0 mi ESE 6.9 mph - N/A   Clear
3:53 AM 39.0 °F 34.0 °F 30.0 °F 70% 30.09 in 10.0 mi East 6.9 mph - N/A   Clear
4:53 AM 37.9 °F 32.1 °F 28.9 °F 70% 30.08 in 10.0 mi East 8.1 mph - N/A   Clear
5:53 AM 37.9 °F 31.5 °F 30.0 °F 73% 30.09 in 10.0 mi East 9.2 mph - N/A   Clear
6:53 AM 39.0 °F 33.4 °F 30.0 °F 70% 30.10 in 10.0 mi SE 8.1 mph - N/A   Clear
7:53 AM 42.1 °F 35.2 °F 30.0 °F 62% 30.10 in 10.0 mi SE 12.7 mph - N/A   Clear
8:53 AM 46.0 °F 40.2 °F 30.0 °F 54% 30.10 in 10.0 mi SE 12.7 mph 19.6 mph N/A   Clear
9:53 AM 51.1 °F - 30.9 °F 46% 30.09 in 10.0 mi SE 15.0 mph 20.7 mph N/A   Clear
10:53 AM 57.0 °F - 32.0 °F 39% 30.07 in 10.0 mi SE 11.5 mph - N/A   Scattered Clouds
11:53 AM 61.0 °F - 35.1 °F 38% 30.04 in 10.0 mi SSE 11.5 mph 19.6 mph N/A   Clear
12:53 PM 64.0 °F - 37.0 °F 37% 30.01 in 10.0 mi SSE 10.4 mph - N/A   Partly Cloudy
1:53 PM 66.0 °F - 37.0 °F 34% 29.97 in 10.0 mi SSE 13.8 mph 24.2 mph N/A   Clear
2:53 PM 64.9 °F - 39.0 °F 39% 29.95 in 10.0 mi SSE 12.7 mph - N/A   Partly Cloudy
3:53 PM 64.0 °F - 39.9 °F 41% 29.94 in 10.0 mi SSE 16.1 mph - N/A   Overcast
4:53 PM 59.0 °F - 37.0 °F 44% 29.94 in 10.0 mi SE 10.4 mph - N/A   Mostly Cloudy
5:53 PM 57.9 °F - 37.9 °F 47% 29.94 in 10.0 mi SE 9.2 mph - N/A   Partly Cloudy
6:53 PM 55.9 °F - 39.0 °F 53% 29.94 in 10.0 mi SE 6.9 mph - N/A   Mostly Cloudy
7:53 PM 54.0 °F - 39.0 °F 57% 29.94 in 10.0 mi ESE 6.9 mph - N/A   Scattered Clouds
8:53 PM 54.0 °F - 35.1 °F 49% 29.94 in 10.0 mi SE 8.1 mph - N/A   Clear
9:53 PM 54.0 °F - 35.1 °F 49% 29.93 in 10.0 mi SSE 12.7 mph - N/A   Scattered Clouds
10:53 PM 52.0 °F - 35.1 °F 53% 29.93 in 10.0 mi SSE 10.4 mph - N/A   Mostly Cloudy